Location: Althorst
(53.6379°N, 10.7715°E)
Time: 14:49:11
(UTC+00:00)

Cosmos 2219 Rocket - Pass Details

Date: 10 December 2019
Orbit: 826 x 848 km, 71.0° (Epoch: 19 January)

Event Time Altitude Azimuth Distance (km) Brightness Sun altitude
Rises 16:01:53 0° 198° (SSW) 3,364 6.1 -8.9°
Reaches altitude 10° 16:04:19 10° 195° (SSW) 2,438 5.2 -9.2°
Maximum altitude 16:09:50 63° 116° (ESE) 930 2.3 -9.9°
Drops below altitude 10° 16:15:25 10° 36° (NE) 2,469 4.1 -10.7°
Enters shadow 16:15:31 10° 36° (NE) 2,505 4.1 -10.7°
